This demonstration page uses our WeatherBlox Daily Observations layout. Learn more.

Left ArrowRight Arrow

40.92945, -100.16068

Hourly Observations for March 1, 2016

Temp ( °F °C ) Dew Point ( °F °C ) Humidity (%) Winds ( mph kmh ) Pressure ( in mb ) Visibility ( mi km ) Precip ( " mm )
12:15 am 00:15 Mostly Cloudy 26 -3.5 23 -5.1 89 89 NNW 8 13 30.18 1022 10 16 N/A
12:35 am 00:35 Partly Cloudy 25 -3.9 22 -5.8 87 87 NNW 8 13 30.18 1022 10 16 N/A
12:55 am 00:55 Mostly Cloudy 25 -3.9 22 -5.6 88 88 N 6 9 30.18 1022 10 16 N/A
1:15 am 01:15 Cloudy 26 -3.3 22 -5.5 85 85 Calm 30.18 1022 10 16 N/A
1:35 am 01:35 Cloudy 26 -3.4 22 -5.5 86 86 NE 3 6 30.18 1022 10 16 N/A
1:55 am 01:55 Cloudy 26 -3.6 22 -5.5 87 87 Calm 30.18 1022 10 16 N/A
2:15 am 02:15 Cloudy 25 -3.9 22 -5.7 87 87 Calm 30.18 1022 10 16 N/A
2:35 am 02:35 Partly Cloudy 24 -4.2 21 -6 87 87 Calm 30.18 1022 10 16 N/A
2:55 am 02:55 Clear 24 -4.7 21 -6.3 89 89 Calm 30.21 1023 10 16 N/A
3:15 am 03:15 Clear 23 -4.9 20 -6.6 88 88 Calm 30.21 1023 10 16 N/A
3:35 am 03:35 Clear 22 -5.7 19 -7.1 90 90 WNW 5 7 30.21 1023 10 16 N/A
3:55 am 03:55 Clear 21 -6.2 18 -7.6 90 90 W 5 7 30.21 1023 10 16 N/A
4:15 am 04:15 Clear 21 -6 19 -7.3 91 91 NNW 6 9 30.21 1023 10 16 N/A
4:35 am 04:35 Clear 21 -6 19 -7.5 89 89 N 6 9 30.21 1023 10 16 N/A
4:55 am 04:55 Clear 20 -6.5 18 -8 89 89 NNW 3 6 30.21 1023 10 16 N/A
5:15 am 05:15 Clear 19 -7 17 -8.5 89 89 Calm 30.21 1023 10 16 N/A
5:35 am 05:35 Clear 19 -7 17 -8.6 89 89 WNW 3 6 30.24 1024 10 16 N/A
5:55 am 05:55 Clear 19 -7.5 15 -9.2 88 88 Calm 30.24 1024 10 16 N/A
6:15 am 06:15 Clear 19 -7.2 16 -8.9 88 88 WNW 3 6 30.24 1024 10 16 N/A
6:35 am 06:35 Clear 19 -7.4 16 -9 88 88 W 3 6 30.24 1024 10 16 N/A
6:55 am 06:55 Clear 20 -6.8 17 -8.4 89 89 W 3 6 30.24 1024 10 16 N/A
7:15 am 07:15 Sunny 20 -6.9 17 -8.4 89 89 NW 5 7 30.27 1025 10 16 N/A
7:35 am 07:35 Sunny 21 -6.2 18 -7.6 90 90 WNW 7 11 30.27 1025 10 16 N/A
7:55 am 07:55 Sunny 23 -4.8 20 -6.5 88 88 NNW 5 7 30.27 1025 10 16 N/A
8:15 am 08:15 Sunny 26 -3.3 23 -5 88 88 NW 7 11 30.27 1025 10 16 N/A
8:35 am 08:35 Sunny 30 -1.3 26 -3.4 86 86 NNW 10 17 30.24 1024 10 16 N/A
8:55 am 08:55 Sunny 33 0.5 27 -2.7 79 79 NNW 18 30 30.27 1025 10 16 N/A
9:15 am 09:15 Sunny 34 1.1 27 -2.6 77 77 NNW 15 24 30.27 1025 10 16 N/A
9:35 am 09:35 Sunny 35 1.7 27 -2.7 73 73 NW 15 24 30.27 1025 10 16 N/A
9:55 am 09:55 Sunny 36 2.1 27 -2.8 70 70 NW 15 24 30.27 1025 10 16 N/A
10:15 am 10:15 Sunny 37 2.9 27 -2.7 67 67 NW 15 24 30.24 1024 10 16 N/A
10:35 am 10:35 Sunny 38 3.5 27 -2.7 64 64 NW 13 20 30.24 1024 10 16 N/A
10:55 am 10:55 Sunny 40 4.4 27 -2.9 59 59 NNW 16 26 30.24 1024 10 16 N/A
11:15 am 11:15 Sunny 41 4.9 27 -3 57 57 N 13 20 30.24 1024 10 16 N/A
11:35 am 11:35 Sunny 41 5.2 27 -2.7 57 57 NW 15 24 30.24 1024 10 16 N/A
11:55 am 11:55 Sunny 42 5.6 27 -2.7 56 56 NW 14 22 30.21 1023 10 16 N/A
12:15 pm 12:15 Sunny 43 6.3 28 -2.5 54 54 NW 14 22 30.18 1022 10 16 N/A
12:35 pm 12:35 Sunny 45 7 28 -2.2 52 52 NNW 12 19 30.18 1022 10 16 N/A
12:55 pm 12:55 Sunny 46 7.5 28 -2.2 51 51 WNW 15 24 30.15 1021 10 16 N/A
1:15 pm 13:15 Sunny 47 8.1 28 -2.2 49 49 NW 9 15 30.12 1020 10 16 N/A
1:35 pm 13:35 Sunny 48 8.9 28 -2.1 46 46 NW 12 19 30.12 1020 10 16 N/A
1:55 pm 13:55 Partly Cloudy 50 10 28 -2.1 43 43 NW 10 17 30.12 1020 10 16 N/A
2:15 pm 14:15 Sunny 50 10.1 28 -2.5 42 42 NNW 6 9 30.09 1019 10 16 N/A
2:35 pm 14:35 Mostly Cloudy 50 10.1 27 -2.8 41 41 WNW 7 11 30.09 1019 10 16 N/A
2:55 pm 14:55 Mostly Cloudy 50 10.2 25 -3.8 37 37 N 8 13 30.06 1018 10 16 N/A
3:15 pm 15:15 Partly Cloudy 51 10.4 25 -4.1 36 36 NW 5 7 30.06 1018 10 16 N/A
3:35 pm 15:35 Mostly Cloudy 53 11.5 23 -5.1 31 31 NNW 7 11 30.03 1017 10 16 N/A
3:55 pm 15:55 Partly Cloudy 53 11.6 23 -5.2 31 31 NNW 7 11 30.03 1017 10 16 N/A
4:15 pm 16:15 Partly Cloudy 53 11.7 22 -5.6 30 30 NNW 3 6 30.03 1017 10 16 N/A
4:35 pm 16:35 Partly Cloudy 55 12.6 21 -6.3 26 26 N 9 15 30.03 1017 10 16 N/A
4:55 pm 16:55 Sunny 53 11.9 19 -7.5 25 25 NW 16 26 30.03 1017 10 16 N/A
5:55 pm 17:55 Sunny 47 8.4 30 -1.3 51 51 ENE 12 19 29.85 1011 10 16 N/A
6:00 pm 18:00 undefined 50 10.1 24 -4.6 36 36 NE 3 6 30.06 1018 N/A N/A
6:15 pm 18:15 undefined 50 9.9 24 -4.5 36 36 Calm 30.06 1018 10 16 N/A
6:35 pm 18:35 Clear 45 7.4 26 -3.4 47 47 E 8 13 30.09 1019 10 16 N/A
6:55 pm 18:55 Clear 46 7.7 26 -3.2 46 46 SE 7 11 30.06 1018 10 16 N/A
7:15 pm 19:15 Clear 43 5.9 26 -3.5 51 51 Calm 30.09 1019 10 16 N/A
7:35 pm 19:35 Clear 42 5.4 25 -3.7 52 52 SSE 6 9 30.09 1019 10 16 N/A
7:55 pm 19:55 Clear 40 4.5 26 -3.1 58 58 E 9 15 30.09 1019 10 16 N/A
8:15 pm 20:15 Clear 40 4.2 25 -3.7 57 57 E 7 11 30.09 1019 10 16 N/A
8:35 pm 20:35 Clear 35 1.6 25 -3.8 68 68 E 8 13 30.12 1020 10 16 N/A
8:55 pm 20:55 Clear 39 4.1 26 -3.5 58 58 ESE 9 15 30.09 1019 10 16 N/A
9:15 pm 21:15 Clear 38 3.5 26 -3.4 61 61 ESE 10 17 30.09 1019 10 16 N/A
9:35 pm 21:35 Clear 37 2.8 26 -3.5 64 64 ESE 10 17 30.12 1020 10 16 N/A
9:55 pm 21:55 Partly Cloudy 37 2.9 26 -3.2 65 65 ESE 8 13 30.12 1020 10 16 N/A
10:15 pm 22:15 Mostly Cloudy 38 3.2 26 -3.3 63 63 SE 10 17 30.12 1020 10 16 N/A
10:35 pm 22:35 Cloudy 38 3.1 26 -3.5 62 62 ESE 7 11 30.12 1020 10 16 N/A
10:55 pm 22:55 Cloudy 37 2.9 26 -3.5 63 63 SE 13 20 30.12 1020 10 16 N/A
11:15 pm 23:15 Mostly Cloudy 36 2.4 25 -3.9 63 63 ESE 14 22 30.12 1020 10 16 N/A
11:35 pm 23:35 Mostly Cloudy 35 1.8 25 -3.8 67 67 SE 10 17 30.12 1020 10 16 N/A
11:55 pm 23:55 Mostly Cloudy 35 1.5 26 -3.6 69 69 SE 8 13 30.12 1020 10 16 N/A

Powered by AerisWeather